Weather History for Davenport, IA

Change the Weather History Date:

Thursday, May 16, 2013

  Actual Average Record
Temperature  
Mean Temperature 69 °F 61 °F  
Max Temperature 85 °F 72 °F 89 °F (1962)
Min Temperature 52 °F 50 °F 33 °F (1997)
Degree Days  
Heating Degree Days 0 6  
Month to date heating degree days 114 124  
Since 1 July heating degree days 6498 6428  
Cooling Degree Days 4 2  
Month to date cooling degree days 24 18  
Year to date cooling degree days 34 24  
Growing Degree Days 20 (Base 50)    
Moisture  
Dew Point 48 °F    
Average Humidity 49    
Maximum Humidity 75    
Minimum Humidity 22    
Precipitation  
Precipitation 0.00 in 0.14 in 0.93 in (1966)
Month to date precipitation 2.37 2.06  
Year to date precipitation 14.82 10.62  
Snow  
Snow 0.00 in - - ()
Month to date snowfall 0.0  
Since 1 July snowfall 27.1  
Snow Depth 0.00 in    
Sea Level Pressure  
Sea Level Pressure 29.89 in    
Wind  
Wind Speed 7 mph (SE)    
Max Wind Speed 17 mph    
Max Gust Speed 21 mph    
Visibility 10 miles    
Events      
T = Trace of Precipitation, MM = Missing Value Source: NWS Daily Summary

Daily Weather History Graph

Daily Weather History Graph

Search for Another Location

Airport:

Trip Planner

Search our weather history database for the weather conditions in past years. The results will help you decide how hot, cold, wet, or windy it might be!

Date:

Astronomy

May. 16, 2013 Rise Set
Actual Time 5:41 AM CDT 8:16 PM CDT
Civil Twilight 5:09 AM CDT 8:48 PM CDT
Nautical Twilight 4:30 AM CDT 9:28 PM CDT
Astronomical Twilight 3:45 AM CDT 10:13 PM CDT
Moon 11:16 AM CDT (5/16) 12:36 AM CDT (5/16)
Length of Visible Light 15h 38m
Length of Day
14h 34m
Waxing Crescent, 36% of the Moon is Illuminated
May 16
Waxing Crescent
May 17
First Quarter
May 24
Full
May 31
Last Quarter
Jun 8
New

Hourly Weather History & Observations

Time (CDT) Temp. Dew Point Humidity Pressure Visibility Wind Dir Wind Speed Gust Speed Precip Events Conditions
12:52 AM 63.0 °F 46.0 °F 54% 29.87 in 10.0 mi NNE 3.5 mph - N/A   Clear
1:52 AM 59.0 °F 48.9 °F 69% 29.87 in 10.0 mi NNE 4.6 mph - N/A   Partly Cloudy
2:52 AM 63.0 °F 46.0 °F 54% 29.88 in 10.0 mi Calm Calm - N/A   Mostly Cloudy
3:52 AM 57.0 °F 48.0 °F 72% 29.88 in 10.0 mi South 4.6 mph - N/A   Scattered Clouds
4:52 AM 55.9 °F 46.0 °F 69% 29.89 in 10.0 mi Calm Calm - N/A   Clear
5:52 AM 55.9 °F 46.9 °F 72% 29.91 in 10.0 mi NW 3.5 mph - N/A   Partly Cloudy
6:52 AM 59.0 °F 51.1 °F 75% 29.92 in 9.0 mi Calm Calm - N/A   Clear
7:52 AM 64.0 °F 52.0 °F 65% 29.93 in 10.0 mi South 3.5 mph - N/A   Partly Cloudy
8:52 AM 70.0 °F 48.0 °F 46% 29.94 in 10.0 mi ESE 4.6 mph - N/A   Partly Cloudy
9:52 AM 70.0 °F 48.0 °F 46% 29.94 in 10.0 mi SE 11.5 mph - N/A   Scattered Clouds
10:52 AM 73.0 °F 48.0 °F 41% 29.94 in 10.0 mi ESE 12.7 mph - N/A   Clear
11:52 AM 77.0 °F 48.9 °F 37% 29.93 in 10.0 mi SE 8.1 mph - N/A   Partly Cloudy
12:52 PM 79.0 °F 45.0 °F 30% 29.91 in 10.0 mi SE 10.4 mph - N/A   Clear
1:52 PM 81.0 °F 44.1 °F 27% 29.89 in 10.0 mi SSE 10.4 mph - N/A   Clear
2:52 PM 82.9 °F 43.0 °F 24% 29.88 in 10.0 mi SE 12.7 mph 18.4 mph N/A   Clear
3:52 PM 84.0 °F 41.0 °F 22% 29.86 in 10.0 mi SSE 10.4 mph - N/A   Clear
4:52 PM 84.0 °F 43.0 °F 24% 29.85 in 10.0 mi South 11.5 mph - N/A   Clear
5:52 PM 81.0 °F 48.0 °F 31% 29.85 in 10.0 mi South 11.5 mph - N/A   Clear
6:52 PM 80.1 °F 51.1 °F 36% 29.85 in 10.0 mi South 8.1 mph - N/A   Clear
7:52 PM 75.9 °F 52.0 °F 43% 29.85 in 10.0 mi SE 6.9 mph - N/A   Clear
8:52 PM 75.0 °F 48.9 °F 40% 29.87 in 10.0 mi ESE 4.6 mph - N/A   Clear
9:52 PM 71.1 °F 51.1 °F 49% 29.89 in 10.0 mi ESE 9.2 mph - N/A   Clear
10:52 PM 66.0 °F 52.0 °F 60% 29.89 in 10.0 mi ESE 5.8 mph - N/A   Clear
11:52 PM 66.9 °F 52.0 °F 59% 29.89 in 10.0 mi SSE 5.8 mph - N/A   Clear